Weather in Zalishchiki

Ukraine / Ternopil District     48˚38′51″N   25˚44′08″E
temp.,
°C
wind,
m/s
gust,
m/s
humid.,
%
clouds,
%
prec.,
mm/h
press.,
hPa
HPBL,
m
28 november, sat
sat2823:00+2˚wnw1396100 0.3 1022168
02:00+2˚wsw1398100 1.1 1021190
05:00+2˚nw3597100 0.9 1020316
08:00+2˚wnw3490100 0.9 1020365
11:00+2˚wnw3483100 0.0 1020504
14:00+3˚nw2474100 0.0 1019683
17:00+2˚nw367795 0.0 1019610
20:00wsw228653 0.0 102034
29 november, sun
sun2923:00wsw249232 0.0 1020159
02:00w368960 0.0 1020262
05:00−1˚wnw249297 0.0 1020171
08:00−1˚w129298 0.1 1021120
11:00+1˚wsw2285100 0.2 1021363
14:00+1˚w1189100 0.4 1021235
17:00ne0096100 0.1 102134
20:00−1˚s129697 0.1 102235
30 november, mon
mon3023:00−1˚nw119676 0.0 102331
02:00−1˚nw129677 0.0 102475
05:00−2˚nw129225 0.0 102446
08:00−2˚nw239124 0.0 102695
11:00nw33730 0.0 1027513
14:00+1˚nw236431 0.0 1027826
17:00−1˚nw227874 0.0 102829
20:00−2˚nw128337 0.0 102924
1 december, tue
tue123:00−2˚n11830 0.0 102921
02:00−3˚sse01830 0.0 102921
05:00−3˚se11850 0.0 102921
08:00−4˚ese22820 0.0 102947
11:00−1˚se34670 0.0 1028431
14:00ese34610 0.0 1026528
17:00−2˚ese35740 0.0 1026114
20:00−3˚ese35770 0.0 1027163
2 december, wed
wed223:00−3˚ese35820 0.0 1027172
02:00−4˚e34890 0.0 1026126
05:00−4˚e359614 0.0 1026138
08:00−3˚ese249547 0.0 1026204
11:00−1˚ese3588100 0.0 1026288
14:00ese3585100 0.0 1024443
17:00ese3794100 0.0 1024334
20:00ese3795100 0.0 1025310